Weather History for Kaneohe MCBH, HI

Change the Weather History Date:

Monday, February 11, 2013

  Actual Average Record
Temperature  
Mean Temperature 74 °F -  
Max Temperature 78 °F 75 °F 82 °F (1998)
Min Temperature 70 °F 66 °F 64 °F (2005)
Cooling Degree Days 9    
Growing Degree Days 24 (Base 50)    
Moisture  
Dew Point 63 °F    
Average Humidity 70    
Maximum Humidity 85    
Minimum Humidity 57    
Precipitation  
Precipitation 0.05 in - - ()
Sea Level Pressure  
Sea Level Pressure 30.19 in    
Wind  
Wind Speed 11 mph (ENE)    
Max Wind Speed 16 mph    
Max Gust Speed 22 mph    
Visibility 9 miles    
Events Rain    
Averages and records for this station are not official NWS values.
T = Trace of Precipitation, MM = Missing Value Source: NWS Daily Summary

Daily Weather History Graph

Daily Weather History Graph

Search for Another Location

Airport:

Trip Planner

Search our weather history database for the weather conditions in past years. The results will help you decide how hot, cold, wet, or windy it might be!

Date:

Astronomy

Feb. 11, 2013 Rise Set
Actual Time 7:03 AM HST 6:27 PM HST
Civil Twilight 6:40 AM HST 6:49 PM HST
Nautical Twilight 6:14 AM HST 7:16 PM HST
Astronomical Twilight 5:48 AM HST 7:42 PM HST
Moon 7:54 AM HST (2/11) 8:12 PM HST (2/11)
Length of Visible Light 12h 09m
Length of Day
11h 23m
Waxing Crescent, 3% of the Moon is Illuminated
Feb 11
Waxing Crescent
Feb 17
First Quarter
Feb 25
Full
Mar 4
Last Quarter
Mar 11
New

Hourly Weather History & Observations

Time (HST) Temp. Dew Point Humidity Pressure Visibility Wind Dir Wind Speed Gust Speed Precip Events Conditions
12:57 AM 72.3 °F 64.9 °F 78% 30.21 in 10.0 mi ENE 9.2 mph - N/A   Scattered Clouds
1:57 AM 70.5 °F 64.0 °F 80% 30.20 in 10.0 mi East 5.8 mph - 0.01 in Rain Light Rain
2:57 AM 70.5 °F 64.9 °F 82% 30.19 in 10.0 mi ENE 8.1 mph - 0.00 in   Clear
3:57 AM 71.6 °F 64.0 °F 77% 30.17 in 10.0 mi ENE 10.4 mph 17.3 mph N/A   Scattered Clouds
4:57 AM 71.2 °F 64.0 °F 78% 30.17 in 10.0 mi ENE 9.2 mph - N/A   Mostly Cloudy
6:57 AM 70.7 °F 66.0 °F 85% 30.20 in 10.0 mi ENE 15.0 mph 21.9 mph 0.01 in Rain Rain
7:57 AM 72.0 °F 64.9 °F 78% 30.21 in 10.0 mi East 9.2 mph - 0.03 in   Mostly Cloudy
8:57 AM 72.0 °F 66.0 °F 81% 30.21 in 10.0 mi ENE 11.5 mph 19.6 mph N/A   Scattered Clouds
9:32 AM 71.6 °F 64.4 °F 78% 30.23 in 6.2 mi East 12.7 mph 20.7 mph N/A   Overcast
9:53 AM 75.2 °F 64.4 °F 69% 30.24 in 6.2 mi ENE 10.4 mph 20.7 mph N/A   Mostly Cloudy
9:57 AM 74.5 °F 64.0 °F 70% 30.22 in 10.0 mi ENE 11.5 mph 17.3 mph N/A   Mostly Cloudy
10:57 AM 75.2 °F 64.9 °F 70% 30.22 in 10.0 mi ENE 12.7 mph 20.7 mph N/A   Scattered Clouds
11:29 AM 75.2 °F 66.2 °F 73% 30.23 in 10.0 mi ENE 10.4 mph 19.6 mph N/A   Mostly Cloudy
12:57 PM 78.8 °F 66.0 °F 65% 30.19 in 10.0 mi NE 15.0 mph 21.9 mph N/A   Overcast
1:42 PM 78.8 °F 64.4 °F 61% 30.18 in 6.2 mi NE 13.8 mph 21.9 mph N/A   Overcast
1:57 PM 78.8 °F 64.0 °F 60% 30.17 in 10.0 mi NE 16.1 mph 21.9 mph N/A   Overcast
2:06 PM 78.8 °F 62.6 °F 57% 30.18 in 6.2 mi NE 13.8 mph 20.7 mph N/A   Scattered Clouds
2:57 PM 78.8 °F 63.0 °F 58% 30.15 in 10.0 mi ENE 16.1 mph 21.9 mph N/A   Scattered Clouds
3:57 PM 75.2 °F 62.1 °F 64% 30.14 in 10.0 mi ENE 11.5 mph 19.6 mph N/A   Mostly Cloudy
4:57 PM 73.4 °F 62.1 °F 68% 30.15 in 10.0 mi NE 11.5 mph 20.7 mph N/A   Mostly Cloudy
5:04 PM - - N/A% 30.16 in 6.2 mi NE 13.8 mph 20.7 mph N/A   Overcast
5:27 PM 75.2 °F 60.8 °F 61% 30.17 in 6.2 mi NE 15.0 mph 20.7 mph N/A   Overcast
5:43 PM 75.2 °F 60.8 °F 61% 30.17 in 6.2 mi NE 13.8 mph 21.9 mph 0.00 in Rain Light Rain
5:52 PM 75.2 °F 60.8 °F 61% 30.18 in 6.2 mi NE 13.8 mph 21.9 mph 0.00 in   Overcast
5:57 PM 75.2 °F 61.0 °F 61% 30.16 in 10.0 mi NE 15.0 mph 21.9 mph 0.00 in   Overcast
6:57 PM 73.4 °F 61.0 °F 65% 30.18 in 10.0 mi ENE 11.5 mph 19.6 mph N/A   Overcast
7:57 PM 72.7 °F 61.0 °F 67% 30.19 in 10.0 mi ENE 11.5 mph 20.7 mph N/A   Overcast
8:57 PM 73.4 °F 62.1 °F 68% 30.20 in 10.0 mi ENE 9.2 mph 18.4 mph N/A   Overcast
9:57 PM 73.4 °F 62.1 °F 68% 30.22 in 10.0 mi ENE 10.4 mph - 0.00 in   Overcast
10:57 PM 71.8 °F 62.1 °F 71% 30.22 in 10.0 mi NE 11.5 mph 18.4 mph N/A   Mostly Cloudy
11:57 PM 71.6 °F 62.1 °F 72% 30.21 in 10.0 mi NE 11.5 mph 20.7 mph N/A   Overcast